CAPE
0 0 0 0 0 0 0 0 0 1 1 2 1 3 2 1 1 0 0 0 0 0 0 0 1 0 4 6 3 6 5 7 4 0 2 0 0 0 0 0 0 0 0
0 0 0 0 0 0 0 0 0 0 1 0 1 1 2 2 2 0 0 0 0 0 0 0 0 1 2 3 3 2 3 2 0 2 0 0 0 0 0 0 0 0 0
0 0 0 0 0 0 0 0 0 0 0 1 1 1 0 0 0 2 0 1 0 0 0 0 1 2 3 4 0 0 0 1 1 0 0 0 0 0 0 0 0 0 0
0 0 1 0 2 0 0 0 0 0 1 1 1 0 1 0 2 0 0 0 0 0 0 0 0 0 0 2 1 0 0 0 0 0 0 0 0 0 0 0 0 0 0
0 0 1 1 2 1 1 0 0 1 2 1 1 1 0 1 1 0 0 0 0 0 0 0 0 0 0 0 0 0 0 0 0 0 0 0 0 0 0 0 0 0 0
0 0 0 0 1 0 0 1 0 1 1 1 1 1 1 1 1 1 0 1 0 0 0 0 0 0 0 0 0 0 0 0 0 0 0 0 0 0 0 0 0 0 0
0 0 1 1 0 0 1 1 0 0 1 0 1 1 1 0 0 2 1 0 1 1 0 0 0 0 0 0 0 0 0 0 0 0 0 0 0 0 0 0 0 0 0
0 0 0 0 0 0 0 0 0 0 0 0 0 1 0 1 1 0 0 0 0 0 0 0 0 0 0 0 0 0 0 0 0 0 0 0 0 0 0 0 0 0 0
0 0 0 0 0 0 0 0 0 0 0 0 0 0 0 0 0 1 0 1 0 0 0 0 0 0 0 0 0 0 0 0 0 0 0 0 0 0 0 0 0 0 0
0 0 0 0 0 0 0 0 0 0 0 0 0 0 0 0 0 0 0 0 0 0 0 0 0 0 0 0 0 0 0 0 0 0 0 0 0 0 0 0 0 0 0
0 0 0 0 0 0 0 0 0 0 0 0 0 0 0 0 0 0 0 0 0 0 0 0 0 0 0 0 0 0 0 0 0 0 0 0 0 0 0 0 0 0 0
0 0 0 0 0 0 0 0 0 0 0 0 0 0 0 0 0 0 0 0 0 0 0 0 0 0 0 0 0 0 0 0 0 0 0 0 0 0 0 0 0 0 0
0 0 0 0 0 0 0 0 0 0 0 0 0 0 0 0 0 0 0 0 0 0 0 0 0 0 0 0 0 0 0 0 0 0 0 0 0 0 0 0 0 0 0
0 0 0 0 0 0 0 0 0 0 0 0 0 0 0 0 0 0 0 0 0 0 0 0 0 0 0 0 0 0 0 0 0 0 0 0 0 0 0 0 0 0 0
0 0 0 0 0 0 0 0 0 0 0 0 0 0 0 0 0 0 0 0 0 0 0 0 0 0 0 0 0 0 0 0 0 0 0 0 0 0 0 0 0 0 0
0 0 0 0 0 0 0 0 0 0 0 0 0 0 0 0 0 0 0 0 0 0 0 0 0 0 0 1 1 0 0 0 0 0 0 0 0 0 0 0 0 0 0
0 0 0 0 0 0 0 0 0 0 0 0 0 0 0 0 0 0 0 0 0 0 0 0 0 0 0 1 1 2 0 0 0 0 0 0 0 0 0 0 0 0 0
0 0 0 0 0 0 0 0 0 0 0 0 0 0 0 0 0 0 0 0 0 0 0 0 0 0 0 1 2 2 0 0 0 0 0 0 0 0 0 0 0 0 0
0 0 0 0 0 0 0 0 0 0 0 0 0 0 0 0 0 0 0 0 0 0 0 0 0 0 0 0 2 1 0 0 0 0 0 0 0 0 2 0 0 0 0
0 0 0 0 0 0 0 0 0 0 0 0 0 0 0 0 0 0 0 0 0 0 0 0 0 0 0 2 4 2 0 0 0 0 0 0 0 2 5 4 0 0 0
0 0 0 0 0 0 0 0 0 0 0 0 0 0 0 0 0 0 0 0 0 0 0 0 0 0 0 0 0 2 1 0 0 0 0 0 0 12 13 9 0 0 0
0 0 0 0 0 0 0 0 0 0 0 0 0 0 0 0 0 0 0 0 0 0 0 0 0 0 0 0 0 0 0 1 2 0 0 0 1 1 2 3 5 14 22
0 0 0 0 0 0 0 0 0 0 0 0 0 0 0 0 0 0 0 0 0 0 0 0 0 0 0 0 0 0 0 1 2 0 6 7 4 1 2 4 6 6 0
0 0 0 0 0 0 0 0 0 0 0 0 0 0 0 0 0 0 0 0 0 0 0 0 0 0 0 0 0 0 0 0 0 0 0 0 4 21 5 5 6 0 0
0 0 0 0 0 0 0 0 0 0 0 0 0 0 0 0 0 0 0 0 0 0 0 0 0 0 0 0 0 0 0 0 0 0 0 0 0 0 0 0 0 0 0
0 0 0 0 0 0 0 0 0 0 0 0 0 0 0 0 0 0 0 0 0 3 12 20 10 0 0 7 14 25 16 14 14 0 0 0 0 0 0 0 0 0 0
CIN
-0 -0 -0 -0 -0 -0 -0 -0 -0 -0 -0 -0 -0 -0 -0 -0 -0 -0 -0 -0 -0 -0 -0 -0 -0 -0 -0 -0 -0 -0 -0 -0 -0 -0 -0 -0 -0 -0 -0 -0 -0 -0 -0
-0 -0 -0 -0 -0 -0 -0 -0 -0 -0 -0 -0 -0 -0 -0 -0 -0 -0 -0 -0 -0 -0 -0 -0 -0 -0 -0 -0 -0 -0 -0 -0 -0 -0 -0 -0 -0 -0 -0 -0 -0 -0 -0
-0 -0 -0 -0 -0 -0 -0 -0 -0 -0 -0 -0 -0 -0 -0 -0 -0 -0 -0 -0 -0 -0 -0 -0 -0 -0 -0 -0 -0 -0 -0 -0 -0 -0 -0 -0 -0 -0 -0 -0 -0 -0 -0
-0 -0 -0 -0 -0 -0 -0 -0 -0 -0 -0 -0 -0 -0 -0 -0 -0 -0 -0 -0 -0 -0 -0 -0 -0 -0 -0 -0 -0 -0 -0 -0 -0 -0 -0 -0 -0 -0 -0 -0 -0 -0 -0
-0 -0 -0 -0 -0 -0 -0 -0 -0 -0 -0 -0 -0 -0 -0 -0 -0 -0 -0 -0 -0 -0 -0 -0 -0 -0 -0 -0 -0 -0 -0 -0 -0 -0 -0 -0 -0 -0 -0 -0 -0 -0 -0
-0 -0 -0 -0 -0 -0 -0 -0 -0 -0 -0 -0 -0 -0 -0 -0 -0 -0 -0 -0 -0 -0 -0 -0 -0 -0 -0 -0 -0 -0 -0 -0 -0 -0 -0 -0 -0 -0 -0 -0 -0 -0 -0
-0 -0 -0 -0 -0 -0 -0 -0 -0 -0 -0 -0 -0 -0 -0 -0 -0 -0 -0 -0 -0 -0 -0 -0 -0 -0 -0 -0 -0 -0 -0 -0 -0 -0 -0 -0 -0 -0 -0 -0 -0 -0 -0
-0 -0 -0 -0 -0 -0 -0 -0 -0 -0 -0 -0 -0 -0 -0 -0 -0 -0 -0 -0 -0 -0 -0 -0 -0 -0 -0 -0 -0 -0 -0 -0 -0 -0 -0 -0 -0 -0 -0 -0 -0 -0 -0
-0 -0 -0 -0 -0 -0 -0 -0 -0 -0 -0 -0 -0 -0 -0 -0 -0 -0 -0 -0 -0 -0 -0 -0 -0 -0 -0 -0 -0 -0 -0 -0 -0 -0 -0 -0 -0 -0 -0 -0 -0 -0 -0
-0 -0 -0 -0 -0 -0 -0 -0 -0 -0 -0 -0 -0 -0 -0 -0 -0 -0 -0 -0 -0 -0 -0 -0 -0 -0 -0 -0 -0 -0 -0 -0 -0 -0 -0 -0 -0 -0 -0 -0 -0 -0 -0
-0 -0 -0 -0 -0 -0 -0 -0 -0 -0 -0 -0 -0 -0 -0 -0 -0 -0 -0 -0 -0 -0 -0 -0 -0 -0 -0 -0 -0 -0 -0 -0 -0 -0 -0 -0 -0 -0 -0 -0 -0 -0 -0
-0 -0 -0 -0 -0 -0 -0 -0 -0 -0 -0 -0 -0 -0 -0 -0 -0 -0 -0 -0 -0 -0 -0 -0 -0 -0 -0 -0 -0 -0 -0 -0 -0 -0 -0 -0 -0 -0 -0 -0 -0 -0 -0
-0 -0 -0 -0 -0 -0 -0 -0 -0 -0 -0 -0 -0 -0 -0 -0 -0 -0 -0 -0 -0 -0 -0 -0 -0 -0 -0 -0 -0 -0 -0 -0 -0 -0 -0 -0 -0 -0 -0 -0 -0 -0 -0
-0 -0 -0 -0 -0 -0 -0 -0 -0 -0 -0 -0 -0 -0 -0 -0 -0 -0 -0 -0 -0 -0 -0 -0 -0 -0 -0 -0 -0 -0 -0 -0 -0 -0 -0 -0 -0 -0 -0 -0 -0 -0 -0
-0 -0 -0 -0 -0 -0 -0 -0 -0 -0 -0 -0 -0 -0 -0 -0 -0 -0 -0 -0 -0 -0 -0 -0 -0 -0 -0 -0 -0 -0 -0 -0 -0 -0 -0 -0 -0 -0 -0 -0 -0 -0 -0
-0 -0 -0 -0 -0 -0 -0 -0 -0 -0 -0 -0 -0 -0 -0 -0 -0 -0 -0 -0 -0 -0 -0 -0 -0 -0 -0 -0 -0 -0 -0 -0 -0 -0 -0 -0 -0 -0 -0 -0 -0 -0 -0
-0 -0 -0 -0 -0 -0 -0 -0 -0 -0 -0 -0 -0 -0 -0 -0 -0 -0 -0 -0 -0 -0 -0 -0 -0 -0 -0 -0 -0 -0 -0 -0 -0 -0 -0 -0 -0 -0 -0 -0 -0 -0 -0
-0 -0 -0 -0 -0 -0 -0 -0 -0 -0 -0 -0 -0 -0 -0 -0 -0 -0 -0 -0 -0 -0 -0 -0 -0 -0 -0 -0 -0 -0 -0 -0 -0 -0 -0 -0 -0 -0 -0 -0 -0 -0 -0
-0 -0 -0 -0 -0 -0 -0 -0 -0 -0 -0 -0 -0 -0 -0 -0 -0 -0 -0 -0 -0 -0 -0 -0 -0 -0 -0 -0 -0 -0 -0 -0 -0 -0 -0 -0 -0 -0 -0 -0 -0 -0 -0
-0 -0 -0 -0 -0 -0 -0 -0 -0 -0 -0 -0 -0 -0 -0 -0 -0 -0 -0 -0 -0 -0 -0 -0 -0 -0 -0 -0 -0 -0 -0 -0 -0 -0 -0 -0 -0 -1 -1 -2 -0 -0 -0
-0 -0 -0 -0 -0 -0 -0 -0 -0 -0 -0 -0 -0 -0 -0 -0 -0 -0 -0 -0 -0 -0 -0 -0 -0 -0 -0 -0 -0 -1 -1 -0 -0 -0 -0 -0 -0 -0 -1 -2 -0 -0 -0
-0 -0 -0 -0 -0 -0 -0 -0 -0 -0 -0 -0 -0 -0 -0 -0 -0 -0 -0 -0 -0 -0 -0 -0 -0 -0 -0 -0 -0 -0 -0 -1 -1 -0 -0 -0 -2 -3 -2 -2 -1 -0 -0
-0 -0 -0 -0 -0 -0 -0 -0 -0 -0 -0 -0 -0 -0 -0 -0 -0 -0 -0 -0 -0 -0 -0 -0 -0 -0 -0 -0 -0 -0 -3 -2 -4 -0 -1 -1 -2 -3 -3 -3 -3 -3 -3
-0 -0 -0 -0 -0 -0 -0 -0 -0 -0 -0 -0 -0 -0 -0 -0 -0 -0 -0 -0 -0 -0 -0 -0 -0 -0 -0 -0 -0 -0 -0 -0 -0 -0 -0 -0 -3 -0 -4 -1 -4 -0 -0
-0 -0 -0 -0 -0 -0 -0 -0 -0 -0 -0 -0 -0 -0 -0 -0 -0 -0 -0 -0 -0 -0 -0 -0 -0 -0 -0 -0 -0 -2 -0 -0 -0 -0 -0 -0 -0 -0 -0 -0 -0 -0 -0
-0 -0 -0 -0 -0 -0 -0 -0 -0 -0 -0 -0 -0 -0 -0 -0 -0 -0 -0 -0 -1 -3 -3 -2 -8 -0 -0 -1 -3 -2 -3 -4 -1 -0 -0 -0 -0 -0 -0 -0 -0 -0 -0
Wind_Speed
27 27 27 26 24 24 24 24 25 26 26 28 28 29 30 28 30 19 24 21 18 18 17 16 15 15 14 15 14 12 12 14 12 15 7 10 12 10 13 10 11 7 8
26 27 27 26 25 25 25 21 23 25 26 27 28 27 27 32 26 23 25 24 21 21 19 19 19 18 17 17 17 16 15 18 19 20 18 18 15 13 13 12 14 10 10
27 27 27 27 27 26 26 24 23 24 25 26 26 27 28 27 27 25 27 29 23 21 22 23 22 21 20 20 20 19 20 20 24 23 21 23 24 22 20 18 17 14 13
25 25 26 26 27 27 26 25 23 24 25 26 27 28 30 31 29 27 25 26 23 24 21 21 21 22 23 23 22 22 23 22 24 27 29 22 16 23 23 21 19 16 15
22 23 24 24 25 25 25 25 23 23 24 24 25 27 27 27 26 26 23 24 26 25 27 24 20 22 26 26 27 25 26 25 25 27 25 22 23 22 26 27 24 19 17
21 21 22 22 23 23 23 22 21 22 22 22 23 24 26 27 28 28 27 28 25 27 23 27 28 26 22 22 26 27 28 27 28 27 27 27 31 29 27 30 24 23 19
19 20 21 21 21 22 21 21 20 20 20 20 21 22 23 24 25 27 28 29 29 25 26 27 28 28 26 24 28 27 28 28 27 27 26 27 28 27 27 24 25 23 20
17 18 19 20 20 21 21 20 20 19 19 19 19 20 21 22 24 25 26 28 27 27 24 25 25 27 25 29 26 31 29 26 29 29 27 27 27 26 24 25 22 23 25
16 17 19 20 20 20 21 20 20 19 19 19 19 20 20 21 22 23 24 24 23 24 25 27 21 25 24 26 31 26 27 29 27 27 26 26 25 24 24 22 22 24 29
16 17 18 19 20 20 20 21 20 20 20 19 19 20 20 20 20 21 22 23 23 23 20 21 20 21 23 27 26 27 26 27 26 25 26 25 25 24 23 22 24 25 26
15 16 17 18 19 20 21 21 21 21 21 21 20 20 20 20 20 20 21 21 22 23 24 22 22 22 24 23 24 25 25 25 27 25 26 26 24 25 23 23 24 25 25
14 15 17 19 20 21 22 22 22 22 22 22 21 20 20 20 20 22 22 22 21 23 22 22 22 23 21 21 24 26 24 25 23 23 23 24 24 25 25 24 26 26 27
14 17 18 20 21 22 23 23 24 24 24 23 23 22 22 22 22 22 22 22 22 23 22 22 24 24 23 23 24 22 23 24 24 23 23 24 25 24 24 24 24 24 23
16 18 20 21 22 23 24 25 25 25 25 24 24 24 24 23 23 22 22 22 22 23 23 22 23 24 23 24 23 22 21 22 22 20 22 23 24 23 24 24 23 23 23
19 21 22 22 23 24 25 25 26 26 26 25 25 25 26 25 25 24 24 24 23 23 24 24 25 25 25 24 26 26 27 26 26 23 24 23 23 23 24 25 24 23 25
19 21 23 23 25 25 26 27 26 27 27 27 26 27 27 27 28 28 27 26 26 26 26 25 26 27 26 27 27 27 30 30 32 35 32 27 28 29 28 25 25 24 27
22 23 23 24 25 26 26 28 28 27 28 28 28 29 29 29 29 29 29 29 29 28 28 28 28 28 28 28 30 29 27 29 31 32 33 33 31 33 33 32 32 31 33
23 24 24 25 26 26 28 28 29 29 29 29 29 29 30 31 31 31 31 31 31 32 32 31 31 31 31 31 32 32 31 30 32 33 33 33 34 34 35 35 38 38 37
24 24 24 25 26 27 28 28 30 30 31 31 32 32 32 32 32 33 33 34 34 33 33 33 33 34 34 34 34 34 34 35 34 33 32 33 34 34 34 34 37 39 40
25 25 26 26 27 28 28 30 32 32 33 33 33 33 33 34 34 34 34 33 34 34 34 35 34 34 35 34 34 35 35 36 36 36 37 36 34 35 35 35 36 39 39
26 25 26 26 28 28 27 30 31 33 33 31 33 34 35 36 36 36 34 34 35 35 36 37 38 38 37 37 36 36 36 35 35 36 36 34 36 37 36 37 38 41 39
27 26 27 28 27 26 27 30 30 31 30 30 31 33 34 34 34 36 37 37 37 38 39 40 40 37 37 38 38 38 39 38 38 38 36 35 36 37 39 40 40 40 38
29 28 28 28 27 26 25 27 28 27 29 29 30 31 32 33 33 35 37 37 37 38 39 39 40 41 38 38 39 40 40 40 41 38 38 37 38 38 39 39 39 39 39
28 27 27 27 28 25 26 25 24 24 25 27 29 29 30 32 31 31 32 34 36 38 39 40 41 40 39 39 37 38 38 40 40 40 39 38 38 39 39 40 39 39 37
26 25 24 25 26 25 24 23 24 23 25 26 27 28 28 28 29 28 29 31 33 35 37 38 38 39 40 38 36 36 36 36 37 38 39 41 43 43 42 40 38 37 37
21 21 21 22 22 22 22 22 23 24 24 25 25 25 25 25 25 27 30 30 33 34 35 37 36 37 39 40 40 39 37 35 35 37 38 39 39 39 40 40 41 39 40
Wind_Direction
305 306 304 304 307 297 286 279 275 272 270 263 260 255 257 258 249 256 256 240 239 234 230 232 228 231 229 231 227 226 218 225 222 238 211 266 270 259 262 265 251 274 285
308 307 305 305 301 299 299 287 280 276 271 267 264 262 262 254 255 253 262 254 243 245 243 236 233 230 230 229 222 216 227 239 239 230 251 261 256 267 259 261 262 268 268
310 309 306 304 300 297 296 292 289 283 276 270 267 265 261 267 264 257 248 257 254 252 249 251 245 238 233 229 223 224 225 224 237 241 260 254 249 247 259 263 259 263 273
313 315 312 306 303 297 297 297 294 289 281 275 269 265 263 260 263 261 261 260 272 259 259 256 254 248 247 236 230 228 234 230 239 243 258 256 250 247 254 259 267 270 270
320 317 316 313 306 303 297 294 296 293 288 280 273 268 266 263 265 265 258 268 270 263 259 261 260 253 251 251 246 240 237 239 240 241 247 247 251 260 259 257 258 264 266
321 322 320 318 316 313 309 306 300 296 293 287 281 275 271 267 264 267 264 263 265 266 270 263 259 261 256 248 253 249 250 245 248 245 244 246 253 254 259 259 250 256 261
322 323 322 321 320 320 318 314 308 301 302 296 290 284 278 275 270 268 266 268 267 273 267 268 261 255 260 265 257 252 251 247 248 248 247 253 258 254 258 255 250 255 256
327 329 329 328 330 330 328 323 318 313 309 304 299 293 288 280 277 277 276 272 274 269 275 265 260 257 263 260 262 252 259 254 250 249 253 254 260 256 253 251 237 251 261
330 330 332 334 334 333 333 331 327 323 318 313 304 301 297 290 284 280 279 280 277 276 266 265 267 264 263 259 257 260 255 249 256 251 251 255 259 258 256 248 239 247 256
328 330 333 334 336 338 337 337 334 330 325 319 317 309 301 299 294 289 283 276 279 277 278 276 271 272 267 260 259 258 257 255 251 251 251 253 256 258 257 249 251 259 261
330 333 335 336 337 338 340 339 337 334 331 327 321 316 313 307 300 296 290 286 282 278 276 281 280 275 267 264 261 261 257 253 250 252 250 253 256 256 256 255 257 261 262
333 333 334 334 335 336 335 335 334 333 332 331 329 324 317 314 309 300 296 292 290 285 283 280 279 275 276 272 263 259 258 253 254 253 252 253 254 256 258 258 258 262 263
326 328 330 332 333 331 330 330 330 328 327 329 330 328 323 319 315 310 304 301 295 291 289 284 277 272 273 272 269 270 261 255 257 254 254 253 255 256 258 260 261 264 264
326 325 326 328 329 330 329 328 327 325 324 324 325 325 325 323 321 314 310 305 301 295 289 290 283 278 276 272 272 268 267 265 261 258 257 256 255 256 257 259 260 262 262
317 319 321 323 325 326 329 329 328 327 325 323 323 321 317 317 316 315 311 306 304 299 293 291 285 282 277 274 272 269 266 266 266 268 264 263 262 264 261 257 259 260 262
320 318 318 320 322 324 327 326 327 327 326 324 323 322 319 314 312 310 308 307 303 298 294 293 288 284 283 280 276 272 271 269 266 263 265 267 265 264 264 267 264 264 263
315 314 317 320 321 323 326 325 325 326 326 324 321 319 318 316 313 310 306 303 301 299 295 292 288 285 284 283 279 281 274 272 270 268 267 266 268 267 268 267 266 268 267
312 314 319 320 319 321 322 323 324 323 323 323 322 321 318 315 312 309 307 304 300 297 293 291 290 287 285 284 281 280 280 278 274 271 270 270 268 267 268 268 268 270 271
314 318 321 319 320 321 323 323 320 321 321 319 318 317 316 314 312 308 305 302 300 298 295 292 289 286 285 284 284 282 280 278 276 276 275 271 271 270 269 268 269 270 271
315 316 316 318 320 321 324 320 318 318 316 314 315 315 313 311 310 308 305 303 300 298 295 293 292 290 287 286 283 282 281 279 277 276 274 273 270 270 270 269 269 270 272
320 321 321 321 322 324 324 321 319 318 318 319 317 314 312 309 307 305 304 302 300 298 295 291 289 287 287 285 284 282 281 280 279 277 276 276 273 272 272 271 271 272 275
323 324 322 323 324 327 326 323 323 324 326 324 321 317 315 314 310 305 302 301 298 294 291 288 288 288 286 284 282 281 279 279 278 276 277 278 276 275 274 274 275 276 276
318 322 322 323 325 326 328 327 327 330 329 328 326 324 321 317 313 308 304 301 297 294 291 289 287 285 287 286 283 281 279 278 277 277 277 277 277 275 275 274 275 275 275
320 323 324 324 325 329 329 331 335 337 336 334 333 332 329 324 319 315 309 304 299 295 291 289 287 286 285 284 284 282 281 280 280 280 279 279 278 276 275 275 275 275 276
324 327 328 329 329 331 333 335 336 337 336 335 335 335 334 332 326 322 317 310 303 298 293 290 287 285 284 284 286 284 281 281 280 279 278 276 274 274 274 275 276 276 276
329 329 329 329 330 332 332 335 335 335 334 334 336 337 338 337 334 329 324 318 310 303 296 291 288 286 284 285 284 282 283 281 277 277 274 274 274 274 274 274 274 274 274